This demonstration page uses our WeatherBlox Daily Observations layout. Learn more.

Left ArrowRight Arrow

Hourly Observations for April 13, 2022

Temp ( °F °C ) Dew Point ( °F °C ) Humidity (%) Winds ( mph kmh ) Pressure ( in mb ) Visibility ( mi km ) Precip ( " mm )
12:15 am 00:15 Cloudy 43 6 12 -10.9 29 29 N 26 43 29.72 1006 10 16 0.00 0.00
12:35 am 00:35 Cloudy 41 5 13 -10.3 32 32 N 31 50 29.75 1007 10 16 0.00 0.00
12:55 am 00:55 Cloudy 39 3.9 14 -10 36 36 N 23 37 29.79 1009 10 16 0.00 0.00
1:15 am 01:15 Cloudy 38 3.2 15 -9.6 39 39 N 25 41 29.82 1010 10 16 0.00 0.00
1:35 am 01:35 Cloudy 36 2.1 15 -9.6 42 42 N 23 37 29.84 1011 10 16 0.00 0.00
1:55 am 01:55 Cloudy 33 0.8 15 -9.6 46 46 N 28 44 29.87 1011 10 16 0.00 0.00
2:15 am 02:15 Cloudy 32 0.1 14 -10 47 47 N 28 44 29.88 1012 10 16 0.00 0.00
2:35 am 02:35 Cloudy 32 0 14 -10.1 47 47 N 25 41 29.90 1013 10 16 0.00 0.00
2:55 am 02:55 Cloudy 32 0 13 -10.7 45 45 N 22 35 29.93 1014 10 16 0.00 0.00
3:15 am 03:15 Cloudy 31 -0.5 11 -11.5 44 44 N 22 35 29.93 1014 10 16 0.00 0.00
3:35 am 03:35 Mostly Cloudy 31 -0.8 11 -11.9 43 43 N 23 37 29.93 1014 10 16 0.00 0.00
3:55 am 03:55 Clear 29 -1.5 10 -12.5 43 43 N 21 33 29.94 1014 10 16 0.00 0.00
4:15 am 04:15 Clear 29 -1.8 10 -12.5 44 44 NNW 20 31 29.94 1014 10 16 0.00 0.00
4:35 am 04:35 Clear 28 -2.5 10 -12.4 47 47 NNW 15 24 29.95 1014 10 16 0.00 0.00
4:55 am 04:55 Clear 27 -2.7 10 -12.4 48 48 NNW 16 26 29.96 1015 10 16 0.00 0.00
5:15 am 05:15 Clear 26 -3.5 9 -12.8 49 49 NNW 15 24 29.96 1014 10 16 0.00 0.00
5:35 am 05:35 Clear 25 -3.8 8 -13.1 49 49 NNW 15 24 29.97 1015 10 16 0.00 0.00
5:55 am 05:55 Clear 24 -4.3 8 -13.2 50 50 NW 21 33 29.98 1015 10 16 0.00 0.00
6:15 am 06:15 Clear 24 -4.7 7 -14 49 49 NW 18 30 29.97 1015 10 16 0.00 0.00
6:35 am 06:35 Clear 23 -5 7 -14 50 50 NW 22 35 29.97 1015 10 16 0.00 0.00
6:55 am 06:55 Clear 23 -5.1 7 -14 50 50 NW 21 33 29.99 1016 10 16 0.00 0.00
7:15 am 07:15 Sunny 22 -5.4 6 -14.3 50 50 NW 20 31 30.01 1016 10 16 0.00 0.00
7:35 am 07:35 Sunny 22 -5.5 6 -14.5 50 50 NW 20 31 30.01 1016 10 16 0.00 0.00
7:55 am 07:55 Sunny 22 -5.5 6 -14.5 50 50 NW 20 31 30.02 1017 10 16 0.00 0.00
8:15 am 08:15 Sunny 23 -4.8 6 -14.5 47 47 NW 24 39 30.01 1016 10 16 0.00 0.00
8:35 am 08:35 Sunny 24 -4.2 5 -15 43 43 NNW 23 37 30.01 1016 10 16 0.00 0.00
8:55 am 08:55 Sunny 26 -3.5 6 -14.7 42 42 NW 26 43 30.00 1016 10 16 0.00 0.00
9:15 am 09:15 Sunny 27 -3 6 -14.4 41 41 NNW 28 44 29.99 1016 10 16 0.00 0.00
9:35 am 09:35 Sunny 27 -2.7 6 -14.4 41 41 NW 25 41 29.99 1016 10 16 0.00 0.00
9:55 am 09:55 Sunny 28 -2.1 6 -14.5 38 38 NW 25 41 29.97 1015 10 16 0.00 0.00
10:15 am 10:15 Sunny 29 -1.6 6 -14.5 37 37 NW 23 37 29.97 1015 10 16 0.00 0.00
10:35 am 10:35 Sunny 31 -0.7 6 -14.3 35 35 NW 21 33 29.96 1015 10 16 0.00 0.00
10:55 am 10:55 Sunny 32 0.1 6 -14.2 34 34 NW 24 39 29.95 1014 10 16 0.00 0.00
11:15 am 11:15 Sunny 33 0.8 6 -14.5 31 31 NW 23 37 29.94 1014 10 16 0.00 0.00
11:35 am 11:35 Sunny 35 1.7 6 -14.5 29 29 NW 21 33 29.93 1013 10 16 0.00 0.00
11:55 am 11:55 Sunny 36 2.3 6 -14.7 27 27 NW 21 33 29.93 1014 10 16 0.00 0.00
12:15 pm 12:15 Sunny 38 3.1 5 -15.2 25 25 NW 24 39 29.92 1013 10 16 0.00 0.00
12:35 pm 12:35 Sunny 39 3.9 5 -15 24 24 NNW 20 31 29.91 1013 10 16 0.00 0.00
12:55 pm 12:55 Sunny 41 4.8 4 -15.8 21 21 NW 23 37 29.89 1012 10 16 0.00 0.00
1:15 pm 13:15 Sunny 41 4.9 3 -15.9 21 21 NW 21 33 29.88 1012 10 16 0.00 0.00
1:35 pm 13:35 Sunny 42 5.8 3 -16.2 19 19 NW 23 37 29.87 1012 10 16 0.00 0.00
1:55 pm 13:55 Sunny 44 6.5 3 -16.3 18 18 WNW 24 39 29.86 1011 10 16 0.00 0.00
2:15 pm 14:15 Sunny 45 7 3 -16.2 17 17 NW 24 39 29.86 1011 10 16 0.00 0.00
2:35 pm 14:35 Sunny 44 6.8 2 -16.5 17 17 WNW 23 37 29.86 1011 10 16 0.00 0.00
2:55 pm 14:55 Sunny 45 7.4 2 -16.6 16 16 NW 29 46 29.86 1011 10 16 0.00 0.00
3:15 pm 15:15 Sunny 46 7.5 2 -16.4 17 17 WNW 28 44 29.86 1011 10 16 0.00 0.00
3:35 pm 15:35 Sunny 46 8 2 -16.4 16 16 NW 24 39 29.85 1011 10 16 0.00 0.00
3:55 pm 15:55 Sunny 46 8 2 -16.8 15 15 NW 17 28 29.85 1011 10 16 0.00 0.00
4:15 pm 16:15 Sunny 47 8.2 2 -16.5 16 16 NW 23 37 29.85 1011 10 16 0.00 0.00
4:35 pm 16:35 Sunny 47 8.2 2 -16.7 15 15 WNW 23 37 29.85 1011 10 16 0.00 0.00
4:55 pm 16:55 Sunny 47 8.6 3 -16.2 16 16 WNW 20 31 29.84 1010 10 16 0.00 0.00
5:15 pm 17:15 Sunny 47 8.5 2 -16.5 15 15 WNW 15 24 29.85 1011 10 16 0.00 0.00
5:35 pm 17:35 Sunny 47 8.5 2 -16.5 15 15 WNW 24 39 29.85 1011 10 16 0.00 0.00
5:55 pm 17:55 Partly Cloudy 47 8.2 2 -16.6 16 16 NW 20 31 29.85 1011 10 16 0.00 0.00
6:15 pm 18:15 Partly Cloudy 47 8.4 2 -16.5 15 15 WNW 20 31 29.85 1011 10 16 0.00 0.00
6:35 pm 18:35 Sunny 47 8.2 2 -16.5 16 16 NNW 18 30 29.85 1011 10 16 0.00 0.00
6:55 pm 18:55 Sunny 45 7.4 2 -16.6 16 16 NW 16 26 29.87 1011 10 16 0.00 0.00
7:15 pm 19:15 Sunny 46 7.5 3 -16.1 17 17 NW 15 24 29.87 1011 10 16 0.00 0.00
7:35 pm 19:35 Sunny 45 7 3 -16 18 18 WNW 12 19 29.87 1011 10 16 0.00 0.00
7:55 pm 19:55 Sunny 44 6.4 3 -16 18 18 NW 10 17 29.87 1012 10 16 0.00 0.00
8:15 pm 20:15 Clear 42 5.8 3 -16 19 19 NW 7 11 29.89 1012 10 16 0.00 0.00
8:35 pm 20:35 Clear 41 4.8 3 -16 21 21 NW 5 7 29.90 1013 10 16 0.00 0.00
8:55 pm 20:55 Clear 39 3.8 3 -16 22 22 W 5 7 29.92 1013 10 16 0.00 0.00
9:15 pm 21:15 Mostly Cloudy 40 4.2 5 -15.1 23 23 W 7 11 29.93 1013 10 16 0.00 0.00
9:35 pm 21:35 Partly Cloudy 37 2.7 5 -15.1 26 26 NNW 14 22 29.96 1015 10 16 0.00 0.00
9:55 pm 21:55 Clear 36 2.1 4 -15.5 26 26 NNW 12 19 29.98 1015 10 16 0.00 0.00
10:15 pm 22:15 Clear 34 1.2 4 -15.5 28 28 NNW 9 15 29.99 1016 10 16 0.00 0.00
10:35 pm 22:35 Partly Cloudy 33 0.7 4 -15.6 29 29 NW 8 13 30.01 1016 10 16 0.00 0.00
10:55 pm 22:55 Clear 32 0 4 -15.6 30 30 NW 8 13 30.02 1017 10 16 0.00 0.00
11:15 pm 23:15 Clear 31 -0.5 4 -15.7 31 31 NW 13 20 30.04 1017 10 16 0.00 0.00
11:35 pm 23:35 Clear 32 0 3 -16 29 29 NW 15 24 30.02 1017 10 16 0.00 0.00
11:55 pm 23:55 Clear 32 0.1 2 -16.5 28 28 NW 18 30 30.02 1017 10 16 0.00 0.00

Powered by AerisWeather